Location: Spaichingen
(48.0400°N, 8.4300°E)
Time: 00:33:01
(UTC+01:00)

ISS - Pass Details

Date: 31 January 2019
Orbit: 403 x 411 km, 51.6° (Epoch: 20 February)

Event Time Altitude Azimuth Distance (km) Brightness Sun altitude
Rises 18:08:44 0° 267° (W) 2,329 1.9 -7.8°
Reaches altitude 10° 18:10:51 10° 273° (W) 1,472 0.3 -8.1°
Maximum altitude 18:14:04 48° 350° (N) 543 -3.2 -8.6°
Enters shadow 18:16:54 13° 64° (ENE) 1,325 -1.9 -9.1°
